Location: Bilsen
(53.7722°N, 9.8765°E)
Time: 18:21:07
(UTC+00:00)

Cosmos 2333 Rocket - Pass Details

Date: 18 February 2020
Orbit: 841 x 861 km, 70.8° (Epoch: 01 April)

Event Time Altitude Azimuth Distance (km) Brightness Sun altitude
Exits shadow 03:19:56 39° 345° (NNW) 1,268 3.1 -29.1°
Drops below altitude 10° 03:24:15 10° 26° (NNE) 2,494 5.2 -28.5°
Sets 03:26:51 0° 33° (NNE) 3,430 6.1 -28.1°
